Regional Weather Roundup
Issued by NWS

Home | Current Version | Previous Version | Text Only | Print | Product List | Glossary On
Versions: 1 2 3 4 5 6 7 8 9 10 11 12 13 14 15 16 17 18 19 20 21 22 23 24 25 26 27 28 29 30 31 32 33 34 35 36 37 38 39 40 41 42 43 44 45 46 47 48 49 50
563
ASUS43 KBIS 241902
RWRND

NORTH DAKOTA REGIONAL WEATHER ROUNDUP
NATIONAL WEATHER SERVICE BISMARCK ND
100 PM CST FRI NOV 24 2017

NOTE: "FAIR" INDICATES FEW OR NO CLOUDS BELOW 12,000 FEET WITH NO
SIGNIFICANT WEATHER AND/OR OBSTRUCTIONS TO VISIBILITY.


NDZ001>003-009>011-017-242000-
NORTHWEST NORTH DAKOTA

CITY           SKY/WX    TMP DP  RH WIND       PRES   REMARKS
WILLISTON      SUNNY     50  34  54 W21       29.70S
MINOT          SUNNY     50  36  58 W24       29.59R
MINOT AFB      SUNNY     49  35  58 NW23G29   29.57R
$$

NDZ018>021-031>035-040>046-242000-
SOUTHWEST NORTH DAKOTA

CITY           SKY/WX    TMP DP  RH WIND       PRES   REMARKS
BISMARCK       SUNNY     54  38  54 NW17G31   29.65S
DICKINSON      SUNNY     49  36  61 W22       29.70R
GARRISON         N/A     48  38  68 NW24G35   29.63R
HETTINGER ARPT MOSUNNY   50  35  56 NW25G35   29.76R
$$

NDZ004>008-012>016-024-026-027-054-242000-
NORTHEAST NORTH DAKOTA

CITY           SKY/WX    TMP DP  RH WIND       PRES   REMARKS
GRAND FORKS    MOSUNNY   45  38  76 NW17G25   29.46R
GRND FRKS AFB  SUNNY     45  36  71 NW20G28   29.48R
DEVILS LAKE    SUNNY     44  36  73 W22       29.53R
$$

NDZ022-023-025-028>030-036>039-047>053-242000-
SOUTHEAST NORTH DAKOTA

CITY           SKY/WX    TMP DP  RH WIND       PRES   REMARKS
FARGO          SUNNY     50  41  71 NW23G31   29.48R
JAMESTOWN      SUNNY     49  37  63 NW26G33   29.55R
$$





USA.gov is the U.S. government's official web portal to all federal, state and local government web resources and services.